Regional Weather Roundup
Issued by NWS Little Rock, AR

Home | Current Version | Previous Version | Graphics & Text | Print | Product List | Glossary On
Versions: 1 2 3 4 5 6 7 8 9 10 11 12 13 14 15 16 17 18 19 20 21 22 23 24 25 26 27 28 29 30 31 32
000
ASUS44 KLZK 260605
RWRLZK

WEATHER ROUNDUP FOR ARKANSAS
NATIONAL WEATHER SERVICE LITTLE ROCK AR
100 AM CDT SAT MAY 26 2018

NOTE: "FAIR" INDICATES FEW OR NO CLOUDS BELOW 12,000 FEET WITH NO
SIGNIFICANT WEATHER AND/OR OBSTRUCTIONS TO VISIBILITY.

ARZ001-003-010-029-260700-
NORTHWEST ARKANSAS

CITY           SKY/WX    TMP DP  RH WIND       PRES   REMARKS
FAYETTEVILLE   FOG       66  66 100 CALM      29.89F VSB 3/4
6HR MIN TEMP:  66; 6HR MAX TEMP:  78;

FORT SMITH     CLEAR     71  70  96 E3        29.85F
6HR MIN TEMP:  71; 6HR MAX TEMP:  85;

HARRISON       CLOUDY    66  65  96 S6        29.90F
6HR MIN TEMP:  66; 6HR MAX TEMP:  70; 6HR PCP:  0.27;

BENTONVILLE    CLEAR     70  66  87 SE5       29.91S
6HR MIN TEMP:  70; 6HR MAX TEMP:  81;

ROGERS         CLEAR     68  65  90 SE3       29.90F
6HR MIN TEMP:  68; 6HR MAX TEMP:  77;

SILOAM SPGS    CLEAR     67  66  97 E3        29.89F
6HR MIN TEMP:  67; 6HR MAX TEMP:  81;

HIGHFILL       CLEAR     68  65  90 E3        29.89F
6HR MIN TEMP:  68; 6HR MAX TEMP:  81;

$$

ARZ004-005-016-260700-
NORTH CENTRAL ARKANSAS

CITY           SKY/WX    TMP DP  RH WIND       PRES   REMARKS
BATESVILLE     CLOUDY    68  67  96 CALM      29.88
6HR MIN TEMP:  67; 6HR MAX TEMP:  71; 6HR PCP:  0.02;

FLIPPIN        LGT RAIN  67  66  97 CALM      29.88F
6HR MIN TEMP:  67; 6HR MAX TEMP:  69;

MTN HOME       CLOUDY    66  66 100 CALM      29.87F
6HR MIN TEMP:  66; 6HR MAX TEMP:  76; 6HR PCP:  0.40;

$$

ARZ040-041-260700-
WEST CENTRAL ARKANSAS

CITY           SKY/WX    TMP DP  RH WIND       PRES   REMARKS
MENA           PTCLDY   N/A N/A N/A W3        29.90S
MOUNT IDA      CLEAR     66  66 100 SE3       29.86S
6HR MIN TEMP:  65; 6HR MAX TEMP:  86;

$$

ARZ009-017-025-026-028-260700-
NORTHEAST ARKANSAS

CITY           SKY/WX    TMP DP  RH WIND       PRES   REMARKS
CORNING        FAIR      73  73 100 S5        29.86F
JONESBORO      FAIR      72  72 100 W5        29.86F
6HR MIN TEMP:  72; 6HR MAX TEMP:  78;

NEWPORT        FAIR      70  70 100 SE5       29.87F
6HR MIN TEMP:  70; 6HR MAX TEMP:  73; 6HR PCP:  0.01;

WALNUT RIDGE     N/A     71  70  96 S3        29.86F
6HR MIN TEMP:  71; 6HR MAX TEMP:  79;

BLYTHEVILLE    FAIR      73  67  81 S5        29.87F
6HR MIN TEMP:  73; 6HR MAX TEMP:  79;

$$

ARZ022-023-033-042-044-260700-
CENTRAL ARKANSAS

CITY           SKY/WX    TMP DP  RH WIND       PRES   REMARKS
LITTLE ROCK    CLOUDY    71  69  93 CALM      29.86F
6HR MIN TEMP:  70; 6HR MAX TEMP:  79;

N LITTLE ROCK    N/A     71  68  92 CALM      29.82F
6HR MIN TEMP:  71; 6HR MAX TEMP:  78;

JACKSONVILLE   CLOUDY    73  72  96 SE3       29.86S
6HR MIN TEMP:  72; 6HR MAX TEMP:  82;

CONWAY         MOCLDY    73  70  88 VRB5      29.86R
SEARCY         FAIR      72  72 100 CALM      29.88F
6HR MIN TEMP:  72; 6HR MAX TEMP:  83;

HOT SPRINGS    PTCLDY    73  71  93 SE3       29.87S
6HR MIN TEMP:  72; 6HR MAX TEMP:  82;

RUSSELLVILLE   CLOUDY    71  70  96 N3        29.86S
6HR MIN TEMP:  69; 6HR MAX TEMP:  73; 6HR PCP:  0.56;

CLINTON        MOCLDY    70  68  94 CALM      29.89S
$$

ARZ036-260700-
EAST ARKANSAS

CITY           SKY/WX    TMP DP  RH WIND       PRES   REMARKS
WEST MEMPHIS   FAIR      71  71 100 CALM      29.85F
6HR MIN TEMP:  71; 6HR MAX TEMP:  77;

$$

ARZ050-053-066-070-073-260700-
SOUTHWEST ARKANSAS

CITY           SKY/WX    TMP DP  RH WIND       PRES   REMARKS
ARKADELPHIA    FAIR      71  69  93 CALM      29.86F
6HR MIN TEMP:  71; 6HR MAX TEMP:  86;

CAMDEN         FAIR      70  66  88 CALM      29.85F
TEXARKANA      CLEAR     71  68  90 SW5       29.88S
6HR MIN TEMP:  69; 6HR MAX TEMP:  79;

EL DORADO      FAIR      72  71  97 S5        29.86F
6HR MIN TEMP:  72; 6HR MAX TEMP:  80;

DE QUEEN       CLEAR     67  67 100 CALM      29.85F FOG
6HR MIN TEMP:  68; 6HR MAX TEMP:  80;

$$

ARZ056-057-069-260700-
SOUTHEAST ARKANSAS

CITY           SKY/WX    TMP DP  RH WIND       PRES   REMARKS
PINE BLUFF     FAIR      70  67  90 S5        29.86F
6HR MIN TEMP:  70; 6HR MAX TEMP:  75;

STUTTGART      FAIR      71  68  90 S6        29.87S
6HR MIN TEMP:  71; 6HR MAX TEMP:  80;


$$






USA.gov is the U.S. government's official web portal to all federal, state and local government web resources and services.